Time,TemperatureF,DewpointF,PressureIn,WindDirection,WindDirectionDegrees,WindSpeedMPH,WindSpeedGustMPH,Humidity,HourlyPrecipIn,Conditions,Clouds,dailyrainin,SoftwareType,DateUTC
2013-09-11 00:00:00,80.6,64.9,30.08,SSE,164,0.0,0.0,59,0.00,,,0.00,Weather View 32 v70,2013-09-11 05:00:00,
2013-09-11 00:10:00,80.2,65.0,30.08,SSE,164,0.0,0.0,60,0.00,,,0.00,Weather View 32 v70,2013-09-11 05:10:00,
2013-09-11 00:15:00,80.0,64.8,30.08,SSE,164,0.0,0.0,60,0.00,,,0.00,Weather View 32 v70,2013-09-11 05:15:00,
2013-09-11 00:25:00,79.7,64.5,30.08,SSE,164,0.0,0.0,60,0.00,,,0.00,Weather View 32 v70,2013-09-11 05:25:00,
2013-09-11 00:30:00,79.6,64.4,30.08,SSE,164,0.0,0.0,60,0.00,,,0.00,Weather View 32 v70,2013-09-11 05:30:00,
2013-09-11 00:35:00,79.6,64.4,30.08,SSE,164,0.0,0.0,60,0.00,,,0.00,Weather View 32 v70,2013-09-11 05:35:00,
2013-09-11 00:45:00,79.6,64.4,30.08,SSE,164,0.0,0.0,60,0.00,,,0.00,Weather View 32 v70,2013-09-11 05:45:00,
2013-09-11 00:55:00,79.4,64.7,30.08,SSE,164,0.0,0.0,61,0.00,,,0.00,Weather View 32 v70,2013-09-11 05:55:00,
2013-09-11 01:05:00,79.2,64.5,30.08,SSE,164,0.0,0.0,61,0.00,,,0.00,Weather View 32 v70,2013-09-11 06:05:00,
2013-09-11 01:15:00,79.1,64.4,30.08,SSE,164,0.0,0.0,61,0.00,,,0.00,Weather View 32 v70,2013-09-11 06:15:00,
2013-09-11 01:25:00,78.9,65.2,30.08,SSE,164,0.0,0.0,63,0.00,,,0.00,Weather View 32 v70,2013-09-11 06:25:00,
2013-09-11 01:35:00,78.4,64.7,30.08,SSE,164,0.0,1.0,63,0.00,,,0.00,Weather View 32 v70,2013-09-11 06:35:00,
2013-09-11 01:40:00,78.3,65.1,30.08,SSE,164,0.0,1.0,64,0.00,,,0.00,Weather View 32 v70,2013-09-11 06:40:00,
2013-09-11 01:50:00,78.3,64.6,30.08,SSE,164,0.0,1.0,63,0.00,,,0.00,Weather View 32 v70,2013-09-11 06:50:00,
2013-09-11 02:00:00,78.1,64.9,30.08,SSE,164,0.0,1.0,64,0.00,,,0.00,Weather View 32 v70,2013-09-11 07:00:00,
2013-09-11 02:05:00,78.0,64.8,30.08,SSE,164,0.0,1.0,64,0.00,,,0.00,Weather View 32 v70,2013-09-11 07:05:00,
2013-09-11 02:15:00,77.8,64.6,30.08,SSE,164,0.0,1.0,64,0.00,,,0.00,Weather View 32 v70,2013-09-11 07:15:00,
2013-09-11 02:20:00,77.9,64.7,30.08,SSE,164,0.0,1.0,64,0.00,,,0.00,Weather View 32 v70,2013-09-11 07:20:00,
2013-09-11 02:30:00,77.9,64.2,30.08,SSE,164,0.0,1.0,63,0.00,,,0.00,Weather View 32 v70,2013-09-11 07:30:00,
2013-09-11 02:40:00,77.8,64.6,30.09,SSE,164,0.0,0.0,64,0.00,,,0.00,Weather View 32 v70,2013-09-11 07:40:00,
2013-09-11 02:45:00,77.6,64.9,30.09,SSE,164,0.0,0.0,65,0.00,,,0.00,Weather View 32 v70,2013-09-11 07:45:00,
2013-09-11 02:55:00,77.5,64.8,30.09,SSE,164,0.0,0.0,65,0.00,,,0.00,Weather View 32 v70,2013-09-11 07:55:00,
2013-09-11 03:00:00,77.5,64.8,30.09,SSE,164,0.0,0.0,65,0.00,,,0.00,Weather View 32 v70,2013-09-11 08:00:00,
2013-09-11 03:10:00,77.5,64.8,30.09,SSE,164,0.0,0.0,65,0.00,,,0.00,Weather View 32 v70,2013-09-11 08:10:00,
2013-09-11 03:15:00,77.5,64.8,30.09,SSE,164,0.0,0.0,65,0.00,,,0.00,Weather View 32 v70,2013-09-11 08:15:00,
2013-09-11 03:20:00,77.5,64.8,30.09,SSE,164,0.0,0.0,65,0.00,,,0.00,Weather View 32 v70,2013-09-11 08:20:00,
2013-09-11 03:30:00,77.5,64.8,30.09,SSE,164,0.0,0.0,65,0.00,,,0.00,Weather View 32 v70,2013-09-11 08:30:00,
2013-09-11 03:40:00,77.8,64.6,30.09,SSE,164,0.0,0.0,64,0.00,,,0.00,Weather View 32 v70,2013-09-11 08:40:00,
2013-09-11 03:45:00,77.7,64.5,30.09,SSE,164,0.0,0.0,64,0.00,,,0.00,Weather View 32 v70,2013-09-11 08:45:00,
2013-09-11 03:55:00,77.6,64.9,30.09,SSE,164,0.0,0.0,65,0.00,,,0.00,Weather View 32 v70,2013-09-11 08:55:00,
2013-09-11 04:05:00,77.5,64.8,30.08,SSE,164,0.0,0.0,65,0.00,,,0.00,Weather View 32 v70,2013-09-11 09:05:00,
2013-09-11 04:15:00,77.6,64.9,30.09,SSE,164,0.0,0.0,65,0.00,,,0.00,Weather View 32 v70,2013-09-11 09:15:00,
2013-09-11 04:20:00,77.4,64.7,30.09,SSE,164,0.0,0.0,65,0.00,,,0.00,Weather View 32 v70,2013-09-11 09:20:00,
2013-09-11 04:25:00,77.2,64.9,30.09,SSE,164,0.0,0.0,66,0.00,,,0.00,Weather View 32 v70,2013-09-11 09:25:00,
2013-09-11 04:35:00,77.1,64.8,30.08,SSE,164,0.0,0.0,66,0.00,,,0.00,Weather View 32 v70,2013-09-11 09:35:00,
2013-09-11 04:45:00,77.0,65.2,30.08,SSE,164,0.0,0.0,67,0.00,,,0.00,Weather View 32 v70,2013-09-11 09:45:00,
2013-09-11 04:55:00,76.6,65.2,30.09,SSE,164,0.0,0.0,68,0.00,,,0.00,Weather View 32 v70,2013-09-11 09:55:00,
2013-09-11 05:00:00,76.5,65.1,30.08,SSE,164,0.0,0.0,68,0.00,,,0.00,Weather View 32 v70,2013-09-11 10:00:00,
2013-09-11 05:05:00,76.4,65.4,30.08,SSE,164,0.0,0.0,69,0.00,,,0.00,Weather View 32 v70,2013-09-11 10:05:00,
2013-09-11 05:15:00,76.1,65.2,30.09,SSE,164,0.0,0.0,69,0.00,,,0.00,Weather View 32 v70,2013-09-11 10:15:00,
2013-09-11 05:20:00,76.0,65.5,30.09,SSE,164,0.0,0.0,70,0.00,,,0.00,Weather View 32 v70,2013-09-11 10:20:00,
2013-09-11 05:25:00,76.0,65.5,30.09,SSE,164,0.0,0.0,70,0.00,,,0.00,Weather View 32 v70,2013-09-11 10:25:00,
2013-09-11 05:30:00,75.8,65.3,30.09,SSE,164,0.0,0.0,70,0.00,,,0.00,Weather View 32 v70,2013-09-11 10:30:00,
2013-09-11 05:40:00,75.6,65.5,30.09,SSE,164,0.0,1.0,71,0.00,,,0.00,Weather View 32 v70,2013-09-11 10:40:00,
2013-09-11 05:50:00,75.5,65.4,30.10,SSE,164,0.0,1.0,71,0.00,,,0.00,Weather View 32 v70,2013-09-11 10:50:00,
2013-09-11 05:55:00,75.4,65.7,30.10,SSE,164,0.0,1.0,72,0.00,,,0.00,Weather View 32 v70,2013-09-11 10:55:00,
2013-09-11 06:05:00,75.0,65.7,30.10,SSE,164,0.0,1.0,73,0.00,,,0.00,Weather View 32 v70,2013-09-11 11:05:00,
2013-09-11 06:10:00,74.8,65.5,30.10,SSE,164,0.0,1.0,73,0.00,,,0.00,Weather View 32 v70,2013-09-11 11:10:00,
2013-09-11 06:15:00,74.8,65.9,30.10,SSE,164,0.0,1.0,74,0.00,,,0.00,Weather View 32 v70,2013-09-11 11:15:00,
2013-09-11 06:20:00,74.9,65.6,30.10,SSE,164,0.0,1.0,73,0.00,,,0.00,Weather View 32 v70,2013-09-11 11:20:00,
2013-09-11 06:25:00,74.9,65.6,30.10,SSE,164,0.0,1.0,73,0.00,,,0.00,Weather View 32 v70,2013-09-11 11:25:00,
2013-09-11 06:35:00,75.0,65.7,30.10,SSE,164,0.0,1.0,73,0.00,,,0.00,Weather View 32 v70,2013-09-11 11:35:00,
2013-09-11 06:45:00,74.9,65.6,30.10,SSE,164,0.0,1.0,73,0.00,,,0.00,Weather View 32 v70,2013-09-11 11:45:00,
2013-09-11 06:55:00,74.9,65.6,30.11,SSE,164,0.0,1.0,73,0.00,,,0.00,Weather View 32 v70,2013-09-11 11:55:00,
2013-09-11 07:00:00,74.8,65.5,30.11,SSE,164,0.0,1.0,73,0.00,,,0.00,Weather View 32 v70,2013-09-11 12:00:00,
2013-09-11 07:05:00,74.8,65.9,30.11,SSE,164,0.0,1.0,74,0.00,,,0.00,Weather View 32 v70,2013-09-11 12:05:00,
2013-09-11 07:15:00,74.8,65.9,30.11,SSE,164,0.0,1.0,74,0.00,,,0.00,Weather View 32 v70,2013-09-11 12:15:00,
2013-09-11 07:20:00,74.8,65.9,30.11,SSE,164,0.0,1.0,74,0.00,,,0.00,Weather View 32 v70,2013-09-11 12:20:00,
2013-09-11 07:30:00,74.8,65.9,30.12,SSE,164,0.0,1.0,74,0.00,,,0.00,Weather View 32 v70,2013-09-11 12:30:00,
2013-09-11 07:35:00,74.7,65.8,30.12,SSE,164,0.0,1.0,74,0.00,,,0.00,Weather View 32 v70,2013-09-11 12:35:00,
2013-09-11 07:40:00,74.7,66.2,30.12,SSE,164,0.0,1.0,75,0.00,,,0.00,Weather View 32 v70,2013-09-11 12:40:00,
2013-09-11 07:45:00,74.8,65.9,30.12,SSE,164,0.0,1.0,74,0.00,,,0.00,Weather View 32 v70,2013-09-11 12:45:00,
2013-09-11 07:55:00,75.2,65.9,30.12,SSE,164,0.0,1.0,73,0.00,,,0.00,Weather View 32 v70,2013-09-11 12:55:00,
2013-09-11 08:00:00,75.3,66.0,30.13,SSE,164,0.0,1.0,73,0.00,,,0.00,Weather View 32 v70,2013-09-11 13:00:00,
2013-09-11 08:05:00,75.6,66.3,30.13,SSE,164,0.0,1.0,73,0.00,,,0.00,Weather View 32 v70,2013-09-11 13:05:00,
2013-09-11 08:10:00,75.8,66.5,30.12,SSE,164,0.0,1.0,73,0.00,,,0.00,Weather View 32 v70,2013-09-11 13:10:00,
2013-09-11 08:15:00,76.1,66.4,30.12,SSE,164,0.0,1.0,72,0.00,,,0.00,Weather View 32 v70,2013-09-11 13:15:00,
2013-09-11 08:20:00,76.4,66.3,30.12,SSE,164,0.0,2.0,71,0.00,,,0.00,Weather View 32 v70,2013-09-11 13:20:00,
2013-09-11 08:25:00,76.7,66.1,30.12,SSE,164,0.0,2.0,70,0.00,,,0.00,Weather View 32 v70,2013-09-11 13:25:00,
2013-09-11 08:30:00,77.2,66.2,30.13,SSE,164,0.0,2.0,69,0.00,,,0.00,Weather View 32 v70,2013-09-11 13:30:00,
2013-09-11 08:35:00,77.5,66.1,30.13,SSE,164,0.0,2.0,68,0.00,,,0.00,Weather View 32 v70,2013-09-11 13:35:00,
2013-09-11 08:45:00,77.8,66.3,30.13,SSE,164,0.0,2.0,68,0.00,,,0.00,Weather View 32 v70,2013-09-11 13:45:00,
2013-09-11 08:55:00,78.4,66.1,30.13,SSE,164,0.0,5.0,66,0.00,,,0.00,Weather View 32 v70,2013-09-11 13:55:00,
2013-09-11 09:00:00,78.5,66.2,30.13,SSE,164,2.0,5.0,66,0.00,,,0.00,Weather View 32 v70,2013-09-11 14:00:00,
2013-09-11 09:05:00,78.8,66.0,30.14,SSE,164,0.0,5.0,65,0.00,,,0.00,Weather View 32 v70,2013-09-11 14:05:00,
2013-09-11 09:15:00,79.7,66.4,30.13,SSE,164,3.0,6.0,64,0.00,,,0.00,Weather View 32 v70,2013-09-11 14:15:00,
2013-09-11 09:20:00,80.3,66.0,30.13,SSE,164,0.0,6.0,62,0.00,,,0.00,Weather View 32 v70,2013-09-11 14:20:00,
2013-09-11 09:30:00,81.4,65.6,30.14,SSE,167,4.0,6.0,59,0.00,,,0.00,Weather View 32 v70,2013-09-11 14:30:00,
2013-09-11 09:40:00,82.5,64.6,30.14,SSW,208,2.0,7.0,55,0.00,,,0.00,Weather View 32 v70,2013-09-11 14:40:00,
2013-09-11 09:45:00,82.9,64.5,30.14,SSW,212,4.0,8.0,54,0.00,,,0.00,Weather View 32 v70,2013-09-11 14:45:00,
2013-09-11 09:55:00,83.2,64.8,30.14,SW,214,3.0,8.0,54,0.00,,,0.00,Weather View 32 v70,2013-09-11 14:55:00,
2013-09-11 10:05:00,83.9,64.9,30.14,SSW,203,0.0,9.0,53,0.00,,,0.00,Weather View 32 v70,2013-09-11 15:05:00,
2013-09-11 10:15:00,84.8,64.6,30.14,SSW,197,7.0,9.0,51,0.00,,,0.00,Weather View 32 v70,2013-09-11 15:15:00,
2013-09-11 10:20:00,84.9,64.7,30.14,SSW,197,2.0,9.0,51,0.00,,,0.00,Weather View 32 v70,2013-09-11 15:20:00,
2013-09-11 10:30:00,85.5,64.7,30.14,SSW,199,0.0,9.0,50,0.00,,,0.00,Weather View 32 v70,2013-09-11 15:30:00,
2013-09-11 10:35:00,85.7,64.8,30.14,SSW,205,0.0,9.0,50,0.00,,,0.00,Weather View 32 v70,2013-09-11 15:35:00,
2013-09-11 10:45:00,86.4,64.9,30.14,SSW,201,0.0,9.0,49,0.00,,,0.00,Weather View 32 v70,2013-09-11 15:45:00,
2013-09-11 10:55:00,86.7,65.2,30.14,South,181,0.0,9.0,49,0.00,,,0.00,Weather View 32 v70,2013-09-11 15:55:00,
2013-09-11 11:00:00,87.2,65.0,30.14,South,183,0.0,9.0,48,0.00,,,0.00,Weather View 32 v70,2013-09-11 16:00:00,
2013-09-11 11:10:00,87.7,64.9,30.14,SSW,206,7.0,9.0,47,0.00,,,0.00,Weather View 32 v70,2013-09-11 16:10:00,
2013-09-11 11:15:00,87.4,64.6,30.14,SSW,207,5.0,9.0,47,0.00,,,0.00,Weather View 32 v70,2013-09-11 16:15:00,
2013-09-11 11:21:00,87.7,64.3,30.14,South,189,6.0,9.0,46,0.00,,,0.00,Weather View 32 v70,2013-09-11 16:21:00,
2013-09-11 11:30:00,88.4,64.3,30.14,SSW,208,5.0,9.0,45,0.00,,,0.00,Weather View 32 v70,2013-09-11 16:30:00,
2013-09-11 11:40:00,88.7,64.5,30.13,SSW,202,0.0,9.0,45,0.00,,,0.00,Weather View 32 v70,2013-09-11 16:40:00,
2013-09-11 11:50:00,89.6,64.7,30.13,South,177,0.0,9.0,44,0.00,,,0.00,Weather View 32 v70,2013-09-11 16:50:00,
2013-09-11 11:59:00,89.6,64.7,30.13,SSW,201,5.0,9.0,44,0.00,,,0.00,Weather View 32 v70,2013-09-11 16:59:00,
2013-09-11 12:05:00,89.8,64.9,30.13,SW,231,4.0,10.0,44,0.00,,,0.00,Weather View 32 v70,2013-09-11 17:05:00,
2013-09-11 12:15:00,90.1,65.2,30.13,SSW,213,3.0,10.0,44,0.00,,,0.00,Weather View 32 v70,2013-09-11 17:15:00,
2013-09-11 12:22:00,89.8,64.9,30.13,South,179,5.0,11.0,44,0.00,,,0.00,Weather View 32 v70,2013-09-11 17:22:00,
2013-09-11 12:30:00,90.4,65.4,30.12,SSE,152,6.0,11.0,44,0.00,,,0.00,Weather View 32 v70,2013-09-11 17:30:00,
2013-09-11 12:35:00,90.6,64.9,30.12,SSE,160,5.0,11.0,43,0.00,,,0.00,Weather View 32 v70,2013-09-11 17:35:00,
2013-09-11 12:40:00,91.0,65.3,30.12,SSE,163,0.0,11.0,43,0.00,,,0.00,Weather View 32 v70,2013-09-11 17:40:00,
2013-09-11 12:45:00,91.1,65.4,30.12,ENE,62,0.0,11.0,43,0.00,,,0.00,Weather View 32 v70,2013-09-11 17:45:00,
2013-09-11 12:55:00,92.4,65.2,30.12,SSE,150,6.0,11.0,41,0.00,,,0.00,Weather View 32 v70,2013-09-11 17:55:00,
2013-09-11 13:00:00,92.4,63.7,30.12,SSE,160,6.0,11.0,39,0.00,,,0.00,Weather View 32 v70,2013-09-11 18:00:00,
2013-09-11 13:05:00,92.1,62.7,30.12,South,187,6.0,11.0,38,0.00,,,0.00,Weather View 32 v70,2013-09-11 18:05:00,
2013-09-11 13:15:00,91.8,63.2,30.11,South,174,7.0,11.0,39,0.00,,,0.00,Weather View 32 v70,2013-09-11 18:15:00,
2013-09-11 13:22:00,92.2,62.8,30.11,SSW,195,0.0,14.0,38,0.00,,,0.00,Weather View 32 v70,2013-09-11 18:22:00,
2013-09-11 13:30:00,92.9,61.9,30.11,South,183,0.0,14.0,36,0.00,,,0.00,Weather View 32 v70,2013-09-11 18:30:00,
2013-09-11 13:35:00,92.7,62.5,30.11,SSW,197,4.0,14.0,37,0.00,,,0.00,Weather View 32 v70,2013-09-11 18:35:00,
2013-09-11 13:45:00,92.9,61.1,30.10,SSE,164,4.0,14.0,35,0.00,,,0.00,Weather View 32 v70,2013-09-11 18:45:00,
2013-09-11 13:55:00,93.0,61.2,30.10,South,191,5.0,14.0,35,0.00,,,0.00,Weather View 32 v70,2013-09-11 18:55:00,
2013-09-11 14:00:00,93.0,62.0,30.10,South,177,0.0,14.0,36,0.00,,,0.00,Weather View 32 v70,2013-09-11 19:00:00,
2013-09-11 14:05:00,93.5,62.4,30.09,SW,220,0.0,14.0,36,0.00,,,0.00,Weather View 32 v70,2013-09-11 19:05:00,
2013-09-11 14:15:00,93.2,62.9,30.09,South,187,7.0,14.0,37,0.00,,,0.00,Weather View 32 v70,2013-09-11 19:15:00,
2013-09-11 14:20:00,93.0,62.8,30.09,South,177,6.0,10.0,37,0.00,,,0.00,Weather View 32 v70,2013-09-11 19:20:00,
2013-09-11 14:29:00,92.9,62.7,30.08,West,261,5.0,13.0,37,0.00,,,0.00,Weather View 32 v70,2013-09-11 19:29:00,
2013-09-11 14:35:00,93.0,62.8,30.08,SSE,164,6.0,13.0,37,0.00,,,0.00,Weather View 32 v70,2013-09-11 19:35:00,
2013-09-11 14:40:00,92.8,63.4,30.08,South,181,0.0,13.0,38,0.00,,,0.00,Weather View 32 v70,2013-09-11 19:40:00,
2013-09-11 14:45:00,93.2,63.7,30.08,South,175,8.0,13.0,38,0.00,,,0.00,Weather View 32 v70,2013-09-11 19:45:00,
2013-09-11 14:55:00,93.5,64.0,30.07,SE,137,0.0,13.0,38,0.00,,,0.00,Weather View 32 v70,2013-09-11 19:55:00,
2013-09-11 15:00:00,93.9,64.3,30.07,SE,144,0.0,13.0,38,0.00,,,0.00,Weather View 32 v70,2013-09-11 20:00:00,
2013-09-11 15:05:00,94.0,63.7,30.06,South,181,2.0,13.0,37,0.00,,,0.00,Weather View 32 v70,2013-09-11 20:05:00,
2013-09-11 15:10:00,94.4,63.2,30.06,SSE,154,0.0,13.0,36,0.00,,,0.00,Weather View 32 v70,2013-09-11 20:10:00,
2013-09-11 15:15:00,94.4,63.2,30.06,ESE,118,0.0,13.0,36,0.00,,,0.00,Weather View 32 v70,2013-09-11 20:15:00,
2013-09-11 15:23:00,94.4,62.4,30.06,SE,141,10.0,15.0,35,0.00,,,0.00,Weather View 32 v70,2013-09-11 20:23:00,
2013-09-11 15:30:00,94.3,62.3,30.06,SE,142,5.0,15.0,35,0.00,,,0.00,Weather View 32 v70,2013-09-11 20:30:00,
2013-09-11 15:35:00,94.1,63.0,30.06,South,175,0.0,15.0,36,0.00,,,0.00,Weather View 32 v70,2013-09-11 20:35:00,
2013-09-11 15:45:00,94.7,62.7,30.05,SE,125,5.0,15.0,35,0.00,,,0.00,Weather View 32 v70,2013-09-11 20:45:00,
2013-09-11 15:55:00,94.3,62.3,30.05,SSE,154,5.0,15.0,35,0.00,,,0.00,Weather View 32 v70,2013-09-11 20:55:00,
2013-09-11 16:05:00,94.6,63.4,30.04,South,170,5.0,15.0,36,0.00,,,0.00,Weather View 32 v70,2013-09-11 21:05:00,
2013-09-11 16:10:00,94.6,62.6,30.04,SE,146,0.0,15.0,35,0.00,,,0.00,Weather View 32 v70,2013-09-11 21:10:00,
2013-09-11 16:15:00,94.4,62.4,30.04,SSE,147,0.0,15.0,35,0.00,,,0.00,Weather View 32 v70,2013-09-11 21:15:00,
2013-09-11 16:20:00,94.2,62.2,30.04,ESE,119,5.0,15.0,35,0.00,,,0.00,Weather View 32 v70,2013-09-11 21:20:00,
2013-09-11 16:25:00,94.4,62.4,30.04,SSE,152,2.0,12.0,35,0.00,,,0.00,Weather View 32 v70,2013-09-11 21:25:00,
2013-09-11 16:30:00,94.6,62.6,30.03,SSE,154,0.0,12.0,35,0.00,,,0.00,Weather View 32 v70,2013-09-11 21:30:00,
2013-09-11 16:35:00,94.2,63.0,30.03,SSE,147,6.0,12.0,36,0.00,,,0.00,Weather View 32 v70,2013-09-11 21:35:00,
2013-09-11 16:44:00,94.0,63.7,30.03,SSW,212,1.0,13.0,37,0.00,,,0.00,Weather View 32 v70,2013-09-11 21:44:00,
2013-09-11 16:50:00,94.3,63.1,30.03,SW,215,0.0,13.0,36,0.00,,,0.00,Weather View 32 v70,2013-09-11 21:50:00,
2013-09-11 16:55:00,94.4,63.2,30.03,SSW,207,4.0,13.0,36,0.00,,,0.00,Weather View 32 v70,2013-09-11 21:55:00,
2013-09-11 17:05:00,94.4,62.4,30.02,SW,228,0.0,13.0,35,0.00,,,0.00,Weather View 32 v70,2013-09-11 22:05:00,
2013-09-11 17:10:00,94.5,62.5,30.02,SSE,168,1.0,13.0,35,0.00,,,0.00,Weather View 32 v70,2013-09-11 22:10:00,
2013-09-11 17:15:00,94.7,62.7,30.02,SSW,200,0.0,13.0,35,0.00,,,0.00,Weather View 32 v70,2013-09-11 22:15:00,
2013-09-11 17:20:00,94.5,63.3,30.02,SSW,210,5.0,13.0,36,0.00,,,0.00,Weather View 32 v70,2013-09-11 22:20:00,
2013-09-11 17:25:00,94.3,62.3,30.02,South,185,1.0,13.0,35,0.00,,,0.00,Weather View 32 v70,2013-09-11 22:25:00,
2013-09-11 17:35:00,93.5,62.4,30.02,SE,132,0.0,13.0,36,0.00,,,0.00,Weather View 32 v70,2013-09-11 22:35:00,
2013-09-11 17:45:00,93.9,62.8,30.01,SE,142,0.0,10.0,36,0.00,,,0.00,Weather View 32 v70,2013-09-11 22:45:00,
2013-09-11 17:55:00,94.3,63.1,30.01,SE,142,0.0,10.0,36,0.00,,,0.00,Weather View 32 v70,2013-09-11 22:55:00,
2013-09-11 18:00:00,94.0,62.9,30.02,ESE,119,0.0,10.0,36,0.00,,,0.00,Weather View 32 v70,2013-09-11 23:00:00,
2013-09-11 18:10:00,93.7,63.4,30.01,ESE,123,5.0,10.0,37,0.00,,,0.00,Weather View 32 v70,2013-09-11 23:10:00,
2013-09-11 18:20:00,93.3,63.0,30.01,SE,135,1.0,10.0,37,0.00,,,0.00,Weather View 32 v70,2013-09-11 23:20:00,
2013-09-11 18:25:00,93.1,62.9,30.01,SE,135,2.0,10.0,37,0.00,,,0.00,Weather View 32 v70,2013-09-11 23:25:00,
2013-09-11 18:35:00,92.9,63.4,30.01,SE,137,6.0,8.0,38,0.00,,,0.00,Weather View 32 v70,2013-09-11 23:35:00,
2013-09-11 18:45:00,92.5,63.1,30.01,SE,130,1.0,8.0,38,0.00,,,0.00,Weather View 32 v70,2013-09-11 23:45:00,
2013-09-11 18:50:00,92.4,63.0,30.01,SE,130,7.0,8.0,38,0.00,,,0.00,Weather View 32 v70,2013-09-11 23:50:00,
2013-09-11 18:55:00,92.4,63.0,30.01,SE,131,0.0,8.0,38,0.00,,,0.00,Weather View 32 v70,2013-09-11 23:55:00,
2013-09-11 19:00:00,92.4,63.7,30.01,SE,131,0.0,8.0,39,0.00,,,0.00,Weather View 32 v70,2013-09-12 00:00:00,
2013-09-11 19:10:00,92.0,63.4,30.01,SE,143,3.0,9.0,39,0.00,,,0.00,Weather View 32 v70,2013-09-12 00:10:00,
2013-09-11 19:20:00,91.7,63.8,30.02,SE,143,0.0,9.0,40,0.00,,,0.00,Weather View 32 v70,2013-09-12 00:20:00,
2013-09-11 19:26:00,91.5,63.7,30.02,SE,143,3.0,9.0,40,0.00,,,0.00,Weather View 32 v70,2013-09-12 00:26:00,
2013-09-11 19:35:00,91.0,63.9,30.02,SE,143,0.0,9.0,41,0.00,,,0.00,Weather View 32 v70,2013-09-12 00:35:00,
2013-09-11 19:45:00,90.7,63.7,30.02,SE,143,0.0,9.0,41,0.00,,,0.00,Weather View 32 v70,2013-09-12 00:45:00,
2013-09-11 19:54:00,90.4,64.1,30.03,SE,143,0.0,9.0,42,0.00,,,0.00,Weather View 32 v70,2013-09-12 00:54:00,
2013-09-11 20:00:00,90.4,64.1,30.03,SE,143,0.0,9.0,42,0.00,,,0.00,Weather View 32 v70,2013-09-12 01:00:00,
2013-09-11 20:10:00,90.1,64.5,30.03,SE,143,0.0,6.0,43,0.00,,,0.00,Weather View 32 v70,2013-09-12 01:10:00,
2013-09-11 20:20:00,89.7,64.8,30.04,SE,143,0.0,5.0,44,0.00,,,0.00,Weather View 32 v70,2013-09-12 01:20:00,
2013-09-11 20:26:00,89.3,65.1,30.04,SE,143,0.0,5.0,45,0.00,,,0.00,Weather View 32 v70,2013-09-12 01:26:00,
2013-09-11 20:35:00,89.0,65.4,30.04,SE,143,0.0,1.0,46,0.00,,,0.00,Weather View 32 v70,2013-09-12 01:35:00,
2013-09-11 20:40:00,88.9,65.4,30.04,SE,143,0.0,1.0,46,0.00,,,0.00,Weather View 32 v70,2013-09-12 01:40:00,
2013-09-11 20:50:00,88.6,65.1,30.04,SE,143,0.0,1.0,46,0.00,,,0.00,Weather View 32 v70,2013-09-12 01:50:00,
2013-09-11 20:55:00,88.4,64.9,30.05,SE,143,0.0,1.0,46,0.00,,,0.00,Weather View 32 v70,2013-09-12 01:55:00,
2013-09-11 21:00:00,88.2,65.3,30.05,SE,143,0.0,1.0,47,0.00,,,0.00,Weather View 32 v70,2013-09-12 02:00:00,
2013-09-11 21:10:00,87.9,65.1,30.05,SE,143,0.0,1.0,47,0.00,,,0.00,Weather View 32 v70,2013-09-12 02:10:00,
2013-09-11 21:20:00,87.7,64.9,30.05,SE,143,0.0,1.0,47,0.00,,,0.00,Weather View 32 v70,2013-09-12 02:20:00,
2013-09-11 21:24:00,87.5,65.3,30.05,SE,143,0.0,1.0,48,0.00,,,0.00,Weather View 32 v70,2013-09-12 02:24:00,
2013-09-11 21:29:00,87.5,65.3,30.06,SE,143,0.0,1.0,48,0.00,,,0.00,Weather View 32 v70,2013-09-12 02:29:00,
2013-09-11 21:35:00,87.3,65.1,30.06,SE,143,0.0,1.0,48,0.00,,,0.00,Weather View 32 v70,2013-09-12 02:35:00,
2013-09-11 21:44:00,87.2,65.6,30.06,SE,143,0.0,1.0,49,0.00,,,0.00,Weather View 32 v70,2013-09-12 02:44:00,
2013-09-11 21:50:00,87.2,65.6,30.06,SE,143,0.0,1.0,49,0.00,,,0.00,Weather View 32 v70,2013-09-12 02:50:00,
2013-09-11 21:55:00,87.1,64.9,30.06,SE,143,0.0,1.0,48,0.00,,,0.00,Weather View 32 v70,2013-09-12 02:55:00,
2013-09-11 22:00:00,86.9,64.8,30.06,SE,143,0.0,1.0,48,0.00,,,0.00,Weather View 32 v70,2013-09-12 03:00:00,
2013-09-11 22:09:00,86.9,65.4,30.06,SE,143,0.0,1.0,49,0.00,,,0.00,Weather View 32 v70,2013-09-12 03:09:00,
2013-09-11 22:14:00,86.8,65.3,30.06,SE,143,0.0,1.0,49,0.00,,,0.00,Weather View 32 v70,2013-09-12 03:14:00,
2013-09-11 22:20:00,86.5,65.0,30.06,SE,143,0.0,1.0,49,0.00,,,0.00,Weather View 32 v70,2013-09-12 03:20:00,
2013-09-11 22:27:00,86.3,65.4,30.06,SE,143,0.0,1.0,50,0.00,,,0.00,Weather View 32 v70,2013-09-12 03:27:00,
2013-09-11 22:35:00,86.1,65.2,30.06,SE,143,0.0,1.0,50,0.00,,,0.00,Weather View 32 v70,2013-09-12 03:35:00,
2013-09-11 22:45:00,85.7,64.8,30.06,SE,143,0.0,1.0,50,0.00,,,0.00,Weather View 32 v70,2013-09-12 03:45:00,
2013-09-11 22:50:00,85.5,65.2,30.06,SE,143,0.0,1.0,51,0.00,,,0.00,Weather View 32 v70,2013-09-12 03:50:00,
2013-09-11 23:00:00,85.1,66.0,30.06,SE,143,0.0,1.0,53,0.00,,,0.00,Weather View 32 v70,2013-09-12 04:00:00,
2013-09-11 23:04:00,84.8,65.7,30.06,SE,143,0.0,1.0,53,0.00,,,0.00,Weather View 32 v70,2013-09-12 04:04:00,
2013-09-11 23:10:00,84.6,66.1,30.06,SE,143,0.0,0.0,54,0.00,,,0.00,Weather View 32 v70,2013-09-12 04:10:00,
2013-09-11 23:15:00,84.4,65.9,30.05,SE,143,0.0,0.0,54,0.00,,,0.00,Weather View 32 v70,2013-09-12 04:15:00,
2013-09-11 23:20:00,84.3,65.8,30.05,SE,143,0.0,0.0,54,0.00,,,0.00,Weather View 32 v70,2013-09-12 04:20:00,
2013-09-11 23:24:00,84.3,65.8,30.05,SE,143,0.0,0.0,54,0.00,,,0.00,Weather View 32 v70,2013-09-12 04:24:00,
2013-09-11 23:29:00,84.1,65.6,30.05,SE,143,0.0,0.0,54,0.00,,,0.00,Weather View 32 v70,2013-09-12 04:29:00,
2013-09-11 23:35:00,83.9,65.9,30.05,SE,143,0.0,0.0,55,0.00,,,0.00,Weather View 32 v70,2013-09-12 04:35:00,
2013-09-11 23:40:00,83.8,65.8,30.05,SE,143,0.0,0.0,55,0.00,,,0.00,Weather View 32 v70,2013-09-12 04:40:00,
2013-09-11 23:50:00,83.6,66.2,30.05,SE,143,0.0,0.0,56,0.00,,,0.00,Weather View 32 v70,2013-09-12 04:50:00,
2013-09-11 23:55:00,83.3,65.9,30.05,ESE,112,8.0,8.0,56,0.00,,,0.00,Weather View 32 v70,2013-09-12 04:55:00,